GTRVO EDXW-EDXH

Flight info

Callsign GTRVO
Flight time 0h 19m
Altitude 3000
Route DCT EDXWS2 DCT EDXWS1 DCT DHE DCT
Aircraft C208/L-SGY/S

Departure

Time 2026-05-07 07:13
Airport Westerland Sylt Airport (EDXW)

Arrival

Time 2026-05-07 07:33
Airport Helgoland-Düne Airport (EDXH)
Time Latitude Longitude Altitude Speed Heading
2026-05-07 06:58 54.91387 8.33130 28 ft 0 kts 91°
2026-05-07 07:07 54.91387 8.33131 28 ft 0 kts 91°
2026-05-07 07:07 54.91387 8.33132 28 ft 0 kts 91°
2026-05-07 07:07 54.91387 8.33149 28 ft 6 kts 91°
2026-05-07 07:07 54.91397 8.33233 30 ft 10 kts 35°
2026-05-07 07:08 54.91469 8.33186 31 ft 14 kts 345°
2026-05-07 07:08 54.91546 8.33185 34 ft 8 kts 354°
2026-05-07 07:08 54.91618 8.33178 37 ft 12 kts
2026-05-07 07:08 54.91716 8.33177 39 ft 14 kts 359°
2026-05-07 07:09 54.91799 8.33184 41 ft 13 kts 22°
2026-05-07 07:09 54.91822 8.33201 41 ft 0 kts 20°
2026-05-07 07:11 54.91823 8.33201 41 ft 1 kts 20°
2026-05-07 07:11 54.91860 8.33225 40 ft 8 kts 22°
2026-05-07 07:11 54.91886 8.33259 40 ft 3 kts 47°
2026-05-07 07:11 54.91906 8.33326 41 ft 10 kts 123°
2026-05-07 07:12 54.91816 8.33438 42 ft 30 kts 144°
2026-05-07 07:12 54.91519 8.33806 42 ft 73 kts 144°
2026-05-07 07:12 54.91072 8.34352 210 ft 78 kts 140°
2026-05-07 07:12 54.90636 8.34994 374 ft 89 kts 134°
2026-05-07 07:13 54.90172 8.35725 624 ft 94 kts 154°
2026-05-07 07:13 54.89502 8.35684 811 ft 103 kts 200°
2026-05-07 07:13 54.88942 8.34954 1077 ft 102 kts 225°
2026-05-07 07:13 54.88475 8.33904 1203 ft 115 kts 226°
2026-05-07 07:14 54.87848 8.32975 1344 ft 122 kts 209°
2026-05-07 07:14 54.87107 8.32186 1525 ft 126 kts 209°
2026-05-07 07:14 54.86338 8.31461 1749 ft 125 kts 200°
2026-05-07 07:14 54.85531 8.30879 1877 ft 131 kts 200°
2026-05-07 07:15 54.84655 8.30406 1923 ft 133 kts 186°
2026-05-07 07:15 54.83715 8.30326 1958 ft 138 kts 178°
2026-05-07 07:15 54.82736 8.30368 1956 ft 144 kts 175°
2026-05-07 07:15 54.81727 8.30504 1971 ft 146 kts 172°
2026-05-07 07:16 54.80711 8.30751 1948 ft 150 kts 171°
2026-05-07 07:16 54.79663 8.30905 1929 ft 152 kts 174°
2026-05-07 07:16 54.78617 8.31053 1975 ft 149 kts 174°
2026-05-07 07:16 54.77575 8.31227 1953 ft 151 kts 172°
2026-05-07 07:17 54.76535 8.31435 1927 ft 153 kts 172°
2026-05-07 07:17 54.75471 8.31343 1964 ft 151 kts 193°
2026-05-07 07:17 54.74512 8.30723 2147 ft 146 kts 200°
2026-05-07 07:17 54.73562 8.30069 2231 ft 146 kts 199°
2026-05-07 07:18 54.72647 8.29444 2387 ft 143 kts 203°
2026-05-07 07:18 54.71773 8.28706 2615 ft 136 kts 201°
2026-05-07 07:18 54.70935 8.28008 2858 ft 131 kts 200°
2026-05-07 07:18 54.70080 8.27372 2966 ft 136 kts 198°
2026-05-07 07:19 54.69158 8.26799 2946 ft 144 kts 195°
2026-05-07 07:19 54.68184 8.26274 2921 ft 149 kts 194°
2026-05-07 07:19 54.67196 8.25722 2961 ft 148 kts 196°
2026-05-07 07:19 54.66222 8.25120 2930 ft 153 kts 199°
2026-05-07 07:20 54.65247 8.24412 2997 ft 149 kts 200°
2026-05-07 07:20 54.64280 8.23757 3029 ft 149 kts 196°
2026-05-07 07:20 54.63277 8.23275 3004 ft 151 kts 189°
2026-05-07 07:20 54.62244 8.22851 2974 ft 154 kts 193°
2026-05-07 07:21 54.61234 8.22243 2980 ft 153 kts 195°
2026-05-07 07:21 54.60235 8.21639 3001 ft 152 kts 197°
2026-05-07 07:21 54.59232 8.21001 2978 ft 154 kts 198°
2026-05-07 07:21 54.58249 8.20336 3075 ft 149 kts 199°
2026-05-07 07:22 54.57290 8.19643 2986 ft 150 kts 199°
2026-05-07 07:22 54.56289 8.19065 3079 ft 154 kts 193°
2026-05-07 07:22 54.55238 8.18568 3032 ft 159 kts 194°
2026-05-07 07:22 54.54195 8.17955 3050 ft 159 kts 200°
2026-05-07 07:23 54.53201 8.17169 3057 ft 159 kts 203°
2026-05-07 07:23 54.52218 8.16233 3011 ft 162 kts 207°
2026-05-07 07:23 54.51214 8.15339 2999 ft 161 kts 202°
2026-05-07 07:23 54.50186 8.14617 3019 ft 158 kts 200°
2026-05-07 07:24 54.49187 8.13809 2996 ft 160 kts 205°
2026-05-07 07:24 54.48214 8.12916 3053 ft 155 kts 207°
2026-05-07 07:24 54.47585 8.12328 3059 ft 157 kts 205°
2026-05-07 07:24 54.46599 8.11407 2933 ft 165 kts 206°
2026-05-07 07:25 54.44622 8.09554 2992 ft 160 kts 202°
2026-05-07 07:25 54.43602 8.08766 2962 ft 161 kts 200°
2026-05-07 07:25 54.42576 8.07988 2959 ft 161 kts 201°
2026-05-07 07:26 54.41554 8.07184 2945 ft 162 kts 202°
2026-05-07 07:26 54.40523 8.06405 2932 ft 161 kts 197°
2026-05-07 07:26 54.39481 8.05726 2936 ft 160 kts 199°
2026-05-07 07:26 54.38444 8.05020 2927 ft 160 kts 196°
2026-05-07 07:27 54.37389 8.04411 2926 ft 159 kts 195°
2026-05-07 07:27 54.36346 8.03849 2930 ft 159 kts 193°
2026-05-07 07:27 54.35301 8.03271 2971 ft 158 kts 197°
2026-05-07 07:27 54.34281 8.02540 2975 ft 160 kts 200°
2026-05-07 07:28 54.33249 8.01815 2951 ft 161 kts 198°
2026-05-07 07:28 54.32210 8.01080 2954 ft 162 kts 200°
2026-05-07 07:28 54.31200 8.00272 2988 ft 159 kts 204°
2026-05-07 07:28 54.30201 7.99440 2925 ft 160 kts 204°
2026-05-07 07:29 54.29200 7.98525 2731 ft 165 kts 206°
2026-05-07 07:29 54.28174 7.97654 2542 ft 166 kts 202°
2026-05-07 07:29 54.27108 7.96903 2354 ft 165 kts 199°
2026-05-07 07:29 54.26037 7.96230 2176 ft 163 kts 198°
2026-05-07 07:30 54.24955 7.95597 1948 ft 165 kts 197°
2026-05-07 07:30 54.23884 7.94968 1672 ft 160 kts 197°
2026-05-07 07:30 54.22857 7.94269 1304 ft 159 kts 202°
2026-05-07 07:30 54.21845 7.93455 853 ft 161 kts 202°
2026-05-07 07:31 54.20865 7.92617 525 ft 155 kts 207°
2026-05-07 07:31 54.20374 7.91232 496 ft 139 kts 279°
2026-05-07 07:31 54.20743 7.89821 455 ft 124 kts 266°
2026-05-07 07:31 54.20269 7.88913 492 ft 98 kts 174°
2026-05-07 07:32 54.19795 7.89500 396 ft 79 kts 126°
2026-05-07 07:32 54.19461 7.90120 285 ft 66 kts 132°
2026-05-07 07:32 54.19135 7.90645 166 ft 63 kts 129°
2026-05-07 07:32 54.18795 7.91111 68 ft 63 kts 135°
2026-05-07 07:33 54.18458 7.91514 11 ft 47 kts 145°
2026-05-07 07:33 54.18333 7.91653 12 ft 4 kts 152°
2026-05-07 07:33 54.18357 7.91648 12 ft 12 kts 327°
2026-05-07 07:33 54.18426 7.91559 10 ft 9 kts 324°
2026-05-07 07:34 54.18481 7.91491 11 ft 13 kts 323°
2026-05-07 07:34 54.18564 7.91515 8 ft 13 kts 26°
2026-05-07 07:34 54.18633 7.91575 8 ft 10 kts 27°
2026-05-07 07:34 54.18697 7.91582 8 ft 7 kts 334°
2026-05-07 07:35 54.18737 7.91595 7 ft 6 kts
2026-05-07 07:35 54.18760 7.91599 8 ft 0 kts 54°